Location: Apollinopolis Magna
(24.9792°N, 32.8772°E)
Time: 10:33:09
(UTC+00:00)

SeaSat 1 - Pass Details

Date: 02 March 2021
Orbit: 744 x 747 km, 108.0° (Epoch: 15 April)

Event Time Altitude Azimuth Distance (km) Brightness Sun altitude
Rises 17:03:54 0° 7° (N) 3,189 5.6 -17.2°
Reaches altitude 10° 17:06:26 10° 356° (N) 2,263 5.0 -17.8°
Maximum altitude 17:10:33 28° 299° (WNW) 1,391 4.5 -18.8°
Drops below altitude 10° 17:14:40 10° 241° (WSW) 2,257 5.8 -19.7°
Sets 17:17:13 0° 230° (SW) 3,178 6.4 -20.3°
